PRPSB SBSI-SBRB

Flight info

Callsign PRPSB
Flight time N/A
Altitude 36000
Route PALEP UZ40 PVH UZ74 BIGOD
Aircraft E145/L-L/2000

Departure

Time 2026-04-22 01:43
Airport Presidente João Batista Figueiredo Airport (SBSI)

Arrival

Time N/A
Airport Rio Branco-Plácido de Castro International Airport (SBRB)
Time Latitude Longitude Altitude Speed Heading
2026-04-22 01:26 -11.87811 -55.58222 1228 ft 0 kts 105°
2026-04-22 01:35 -11.87812 -55.58222 1228 ft 0 kts 105°
2026-04-22 01:36 -11.87810 -55.58228 1228 ft 2 kts 105°
2026-04-22 01:36 -11.87806 -55.58243 1228 ft 2 kts 105°
2026-04-22 01:36 -11.87802 -55.58257 1228 ft 2 kts 105°
2026-04-22 01:36 -11.87796 -55.58270 1228 ft 2 kts 148°
2026-04-22 01:37 -11.87783 -55.58273 1228 ft 0 kts 195°
2026-04-22 01:37 -11.87781 -55.58273 1228 ft 0 kts 195°
2026-04-22 01:38 -11.87790 -55.58275 1228 ft 2 kts 195°
2026-04-22 01:39 -11.87817 -55.58282 1228 ft 6 kts 193°
2026-04-22 01:39 -11.87845 -55.58320 1228 ft 8 kts 278°
2026-04-22 01:39 -11.87830 -55.58383 1228 ft 10 kts 284°
2026-04-22 01:39 -11.87849 -55.58454 1229 ft 13 kts 201°
2026-04-22 01:40 -11.87950 -55.58483 1230 ft 16 kts 195°
2026-04-22 01:40 -11.88074 -55.58517 1230 ft 20 kts 194°
2026-04-22 01:40 -11.88224 -55.58556 1230 ft 23 kts 194°
2026-04-22 01:40 -11.88397 -55.58600 1230 ft 27 kts 196°
2026-04-22 01:41 -11.88572 -55.58651 1233 ft 24 kts 195°
2026-04-22 01:41 -11.88731 -55.58693 1233 ft 23 kts 194°
2026-04-22 01:41 -11.88884 -55.58733 1233 ft 21 kts 196°
2026-04-22 01:41 -11.89033 -55.58773 1233 ft 22 kts 195°
2026-04-22 01:42 -11.89145 -55.58799 1233 ft 13 kts 168°
2026-04-22 01:42 -11.89185 -55.58803 1233 ft 0 kts 312°
2026-04-22 01:42 -11.89180 -55.58805 1233 ft 1 kts 349°
2026-04-22 01:42 -11.89156 -55.58803 1233 ft 7 kts
2026-04-22 01:43 -11.88964 -55.58754 1233 ft 58 kts 16°
2026-04-22 01:43 -11.88375 -55.58596 1230 ft 117 kts 15°
2026-04-22 01:43 -11.87427 -55.58362 1424 ft 148 kts 12°
2026-04-22 01:43 -11.86395 -55.58183 1861 ft 163 kts 360°
2026-04-22 01:44 -11.85286 -55.58363 2546 ft 161 kts 333°
2026-04-22 01:44 -11.84419 -55.59066 3148 ft 164 kts 308°
2026-04-22 01:44 -11.83937 -55.60267 3193 ft 207 kts 287°
2026-04-22 01:44 -11.83404 -55.61760 3280 ft 246 kts 293°
2026-04-22 01:45 -11.82627 -55.63469 3628 ft 273 kts 297°
2026-04-22 01:45 -11.81774 -55.65160 4584 ft 273 kts 298°
2026-04-22 01:45 -11.80875 -55.66857 5528 ft 274 kts 300°
2026-04-22 01:45 -11.80170 -55.68673 6298 ft 280 kts 276°
2026-04-22 01:46 -11.80347 -55.70654 7074 ft 284 kts 259°
2026-04-22 01:46 -11.80680 -55.72619 7838 ft 288 kts 259°
2026-04-22 01:46 -11.81040 -55.74644 8591 ft 293 kts 258°
2026-04-22 01:46 -11.81412 -55.76695 9326 ft 297 kts 258°
2026-04-22 01:47 -11.81790 -55.78770 10044 ft 301 kts 258°
2026-04-22 01:47 -11.82177 -55.80877 10634 ft 310 kts 258°
2026-04-22 01:47 -11.82582 -55.83086 11081 ft 324 kts 259°
2026-04-22 01:47 -11.83001 -55.85375 11566 ft 336 kts 259°
2026-04-22 01:48 -11.83437 -55.87754 12051 ft 347 kts 259°
2026-04-22 01:48 -11.83891 -55.90222 12644 ft 354 kts 259°
2026-04-22 01:48 -11.84338 -55.92657 13371 ft 355 kts 259°
2026-04-22 01:48 -11.84792 -55.95136 14072 ft 357 kts 260°
2026-04-22 01:49 -11.85247 -55.97626 14724 ft 360 kts 260°
2026-04-22 01:49 -11.85708 -56.00145 15368 ft 363 kts 260°
2026-04-22 01:49 -11.86170 -56.02676 16003 ft 365 kts 261°
2026-04-22 01:49 -11.86636 -56.05227 16620 ft 368 kts 261°
2026-04-22 01:50 -11.87105 -56.07796 17227 ft 370 kts 261°
2026-04-22 01:50 -11.87575 -56.10373 17825 ft 372 kts 261°
2026-04-22 01:50 -11.88049 -56.12972 18488 ft 371 kts 261°
2026-04-22 01:50 -11.88516 -56.15536 19273 ft 366 kts 261°
2026-04-22 01:51 -11.88967 -56.18043 19987 ft 362 kts 264°
2026-04-22 01:51 -11.88834 -56.20550 20581 ft 352 kts 290°
2026-04-22 01:51 -11.87963 -56.22866 21230 ft 347 kts 295°
2026-04-22 01:51 -11.87032 -56.25099 21844 ft 345 kts 296°
2026-04-22 01:52 -11.86070 -56.27330 22450 ft 343 kts 297°
2026-04-22 01:52 -11.85105 -56.29544 23044 ft 340 kts 297°
2026-04-22 01:52 -11.84155 -56.31710 23601 ft 338 kts 297°
2026-04-22 01:52 -11.83194 -56.33900 24153 ft 336 kts 297°
2026-04-22 01:53 -11.82241 -56.36072 24687 ft 335 kts 297°
2026-04-22 01:53 -11.81303 -56.38205 25196 ft 333 kts 297°
2026-04-22 01:53 -11.80355 -56.40362 25693 ft 331 kts 296°
2026-04-22 01:53 -11.79425 -56.42479 26172 ft 330 kts 296°
2026-04-22 01:54 -11.78485 -56.44616 26642 ft 328 kts 296°
2026-04-22 01:54 -11.77553 -56.46735 27096 ft 327 kts 296°
2026-04-22 01:54 -11.76632 -56.48828 27522 ft 326 kts 296°
2026-04-22 01:54 -11.75699 -56.50950 27954 ft 325 kts 296°
2026-04-22 01:55 -11.74788 -56.53019 28365 ft 323 kts 296°
2026-04-22 01:55 -11.73867 -56.55112 28758 ft 322 kts 296°
2026-04-22 01:55 -11.72946 -56.57203 29136 ft 322 kts 296°
2026-04-22 01:55 -11.72040 -56.59261 29504 ft 321 kts 295°
2026-04-22 01:56 -11.71126 -56.61337 29877 ft 320 kts 295°
2026-04-22 01:56 -11.70224 -56.63382 30224 ft 319 kts 295°
2026-04-22 01:56 -11.69312 -56.65453 30559 ft 319 kts 295°
2026-04-22 01:56 -11.68411 -56.67495 30898 ft 318 kts 295°
2026-04-22 01:57 -11.67504 -56.69553 31257 ft 317 kts 295°
2026-04-22 01:57 -11.66606 -56.71589 31592 ft 316 kts 295°
2026-04-22 01:57 -11.65713 -56.73615 31899 ft 315 kts 295°
2026-04-22 01:57 -11.64806 -56.75670 32189 ft 315 kts 295°
2026-04-22 01:58 -11.63913 -56.77694 32486 ft 315 kts 295°
2026-04-22 01:58 -11.63021 -56.79715 32792 ft 314 kts 295°
2026-04-22 01:58 -11.62120 -56.81757 33075 ft 313 kts 295°
2026-04-22 01:58 -11.61224 -56.83786 33342 ft 313 kts 295°
2026-04-22 01:59 -11.60333 -56.85799 33597 ft 313 kts 295°
2026-04-22 01:59 -11.59436 -56.87824 33855 ft 312 kts 295°
2026-04-22 01:59 -11.58550 -56.89823 34095 ft 310 kts 295°
2026-04-22 01:59 -11.57663 -56.91828 34223 ft 309 kts 295°
2026-04-22 02:00 -11.55894 -56.95821 34267 ft 315 kts 295°
2026-04-22 02:00 -11.54994 -56.97853 34484 ft 311 kts 295°
2026-04-22 02:00 -11.54111 -56.99842 34672 ft 308 kts 295°
2026-04-22 02:01 -11.53231 -57.01828 34864 ft 304 kts 295°
2026-04-22 02:01 -11.52372 -57.03764 35052 ft 301 kts 295°
2026-04-22 02:01 -11.51521 -57.05683 35241 ft 297 kts 295°
2026-04-22 02:01 -11.50674 -57.07592 35429 ft 292 kts 295°
2026-04-22 02:02 -11.49848 -57.09453 35613 ft 288 kts 295°
2026-04-22 02:02 -11.49025 -57.11307 35800 ft 283 kts 295°
2026-04-22 02:02 -11.48225 -57.13110 35947 ft 279 kts 295°
2026-04-22 02:02 -11.47430 -57.14898 35959 ft 280 kts 295°
2026-04-22 02:03 -11.46621 -57.16718 35966 ft 281 kts 295°
2026-04-22 02:03 -11.45817 -57.18529 35968 ft 283 kts 295°
2026-04-22 02:03 -11.45006 -57.20354 35967 ft 285 kts 295°
2026-04-22 02:03 -11.44182 -57.22208 35968 ft 286 kts 295°
2026-04-22 02:04 -11.42536 -57.25909 35967 ft 290 kts 295°
2026-04-22 02:04 -11.41708 -57.27773 35967 ft 292 kts 295°
2026-04-22 02:04 -11.40864 -57.29670 35968 ft 293 kts 295°
2026-04-22 02:05 -11.40026 -57.31552 35968 ft 295 kts 295°
2026-04-22 02:05 -11.39176 -57.33464 35967 ft 298 kts 295°
2026-04-22 02:05 -11.38313 -57.35403 35967 ft 300 kts 295°
2026-04-22 02:06 -11.36570 -57.39317 35967 ft 304 kts 295°
2026-04-22 02:06 -11.34787 -57.43320 35967 ft 309 kts 295°
2026-04-22 02:07 -11.32945 -57.47454 35967 ft 314 kts 295°
2026-04-22 02:07 -11.31103 -57.51586 35967 ft 319 kts 295°
2026-04-22 02:08 -11.29251 -57.55738 35967 ft 324 kts 295°
2026-04-22 02:08 -11.27364 -57.59966 35966 ft 329 kts 295°
2026-04-22 02:09 -11.25450 -57.64256 35966 ft 334 kts 295°
2026-04-22 02:09 -11.23494 -57.68634 35970 ft 340 kts 295°
2026-04-22 02:10 -11.21490 -57.73118 35970 ft 346 kts 295°
2026-04-22 02:10 -11.19483 -57.77611 35970 ft 351 kts 295°
2026-04-22 02:11 -11.17439 -57.82183 35969 ft 357 kts 295°
2026-04-22 02:11 -11.15353 -57.86846 35969 ft 362 kts 295°
2026-04-22 02:12 -11.13239 -57.91571 35968 ft 368 kts 295°
2026-04-22 02:12 -11.11104 -57.96341 35968 ft 373 kts 295°
2026-04-22 02:13 -11.08953 -58.01144 35967 ft 378 kts 295°
2026-04-22 02:13 -11.06749 -58.06062 35967 ft 383 kts 295°
2026-04-22 02:14 -11.04526 -58.11020 35967 ft 388 kts 295°
2026-04-22 02:14 -11.02281 -58.16024 35967 ft 392 kts 295°
2026-04-22 02:15 -11.00000 -58.21107 35966 ft 396 kts 295°
2026-04-22 02:15 -10.97706 -58.26218 35965 ft 400 kts 295°
2026-04-22 02:16 -10.95372 -58.31417 35965 ft 404 kts 295°
2026-04-22 02:16 -10.93033 -58.36624 35965 ft 407 kts 295°
2026-04-22 02:17 -10.90672 -58.41879 35962 ft 405 kts 295°
2026-04-22 02:17 -10.88326 -58.47095 35964 ft 404 kts 295°
2026-04-22 02:18 -10.85996 -58.52275 35964 ft 403 kts 294°
2026-04-22 02:18 -10.83663 -58.57457 35963 ft 402 kts 294°
2026-04-22 02:19 -10.81345 -58.62604 35963 ft 401 kts 295°
2026-04-22 02:19 -10.79016 -58.67773 35968 ft 401 kts 295°
2026-04-22 02:20 -10.76705 -58.72899 35968 ft 400 kts 295°
2026-04-22 02:20 -10.74378 -58.78058 35967 ft 400 kts 295°
2026-04-22 02:21 -10.72056 -58.83207 35966 ft 399 kts 295°
2026-04-22 02:21 -10.69752 -58.88310 35966 ft 399 kts 295°
2026-04-22 02:22 -10.67421 -58.93468 35965 ft 399 kts 295°
2026-04-22 02:22 -10.65100 -58.98601 35965 ft 399 kts 296°
2026-04-22 02:23 -10.62737 -59.03827 35965 ft 399 kts 296°
2026-04-22 02:23 -10.60418 -59.08950 35966 ft 399 kts 296°
2026-04-22 02:24 -10.58091 -59.14090 35966 ft 400 kts 296°
2026-04-22 02:24 -10.55833 -59.19073 35966 ft 400 kts 296°
2026-04-22 02:25 -10.53453 -59.24325 35966 ft 400 kts 296°
2026-04-22 02:25 -10.51183 -59.29462 35963 ft 401 kts 292°
2026-04-22 02:26 -10.49182 -59.34738 35965 ft 401 kts 292°
2026-04-22 02:26 -10.47177 -59.40014 35965 ft 401 kts 292°
2026-04-22 02:27 -10.45161 -59.45317 35965 ft 401 kts 292°
2026-04-22 02:27 -10.43193 -59.50491 35965 ft 401 kts 292°
2026-04-22 02:28 -10.41153 -59.55850 35965 ft 401 kts 292°
2026-04-22 02:28 -10.39133 -59.61155 35964 ft 402 kts 292°
2026-04-22 02:29 -10.37114 -59.66454 35966 ft 402 kts 292°
2026-04-22 02:29 -10.35092 -59.71758 35966 ft 402 kts 292°
2026-04-22 02:30 -10.33078 -59.77037 35966 ft 402 kts 292°
2026-04-22 02:30 -10.31049 -59.82353 35966 ft 402 kts 292°
2026-04-22 02:31 -10.29023 -59.87658 35966 ft 403 kts 292°
2026-04-22 02:31 -10.26999 -59.92956 35965 ft 403 kts 292°
2026-04-22 02:32 -10.24974 -59.98250 35965 ft 403 kts 292°
2026-04-22 02:32 -10.22979 -60.03468 35965 ft 403 kts 292°
2026-04-22 02:33 -10.20960 -60.08744 35965 ft 403 kts 292°
2026-04-22 02:33 -10.18923 -60.14062 35965 ft 403 kts 292°
2026-04-22 02:34 -10.16901 -60.19339 35964 ft 403 kts 292°
2026-04-22 02:34 -10.14865 -60.24651 35964 ft 404 kts 292°
2026-04-22 02:35 -10.12829 -60.29957 35964 ft 404 kts 292°
2026-04-22 02:35 -10.10788 -60.35275 35964 ft 404 kts 292°
2026-04-22 02:36 -10.08755 -60.40570 35964 ft 404 kts 292°
2026-04-22 02:36 -10.06727 -60.45850 35964 ft 404 kts 292°
2026-04-22 02:37 -10.04679 -60.51177 35963 ft 404 kts 292°
2026-04-22 02:37 -10.02641 -60.56477 35963 ft 404 kts 292°
2026-04-22 02:38 -10.00609 -60.61757 35963 ft 404 kts 292°
2026-04-22 02:38 -9.98565 -60.67065 35965 ft 404 kts 292°
2026-04-22 02:39 -9.96508 -60.72404 35965 ft 405 kts 292°
2026-04-22 02:39 -9.94454 -60.77734 35964 ft 405 kts 292°
2026-04-22 02:40 -9.92396 -60.83070 35964 ft 405 kts 292°
2026-04-22 02:40 -9.90345 -60.88385 35964 ft 405 kts 292°
2026-04-22 02:41 -9.88295 -60.93689 35967 ft 405 kts 292°
2026-04-22 02:41 -9.86236 -60.99005 35968 ft 406 kts 292°
2026-04-22 02:42 -9.84167 -61.04347 35968 ft 406 kts 292°
2026-04-22 02:42 -9.82096 -61.09687 35967 ft 406 kts 292°
2026-04-22 02:43 -9.80031 -61.15011 35967 ft 407 kts 293°
2026-04-22 02:43 -9.77964 -61.20336 35967 ft 407 kts 293°
2026-04-22 02:44 -9.75880 -61.25703 35966 ft 407 kts 293°
2026-04-22 02:44 -9.73794 -61.31070 35966 ft 407 kts 293°
2026-04-22 02:45 -9.71718 -61.36412 35966 ft 407 kts 293°
2026-04-22 02:45 -9.69650 -61.41729 35966 ft 407 kts 293°
2026-04-22 02:46 -9.67571 -61.47071 35965 ft 407 kts 293°
2026-04-22 02:46 -9.65494 -61.52407 35965 ft 407 kts 293°
2026-04-22 02:47 -9.63411 -61.57754 35965 ft 407 kts 293°
2026-04-22 02:47 -9.61325 -61.63106 35965 ft 407 kts 293°
2026-04-22 02:48 -9.59234 -61.68443 35967 ft 407 kts 293°
2026-04-22 02:48 -9.57147 -61.73769 35967 ft 407 kts 293°
2026-04-22 02:49 -9.55043 -61.79130 35967 ft 407 kts 293°
2026-04-22 02:49 -9.52944 -61.84480 35966 ft 407 kts 293°
2026-04-22 02:50 -9.50865 -61.89774 35966 ft 408 kts 293°
2026-04-22 02:50 -9.48774 -61.95092 35966 ft 408 kts 293°
2026-04-22 02:51 -9.46666 -62.00452 35966 ft 408 kts 293°
2026-04-22 02:51 -9.44563 -62.05793 35965 ft 408 kts 293°
2026-04-22 02:51 -9.43922 -62.08441 35953 ft 411 kts 274°
2026-04-22 02:52 -9.44186 -62.11318 35994 ft 412 kts 265°
2026-04-22 02:52 -9.44609 -62.17119 35966 ft 412 kts 269°